TimeEDT,TemperatureF,Dew PointF,Humidity,Sea Level PressureIn,VisibilityMPH,Wind Direction,Wind SpeedMPH,Gust SpeedMPH,PrecipitationIn,Events,Conditions,WindDirDegrees,DateUTC
12:28 AM,30.2,28.4,93,29.92,6.0,WNW,5.8,-,0.00,,Overcast,300,2013-03-26 04:28:00
12:53 AM,30.9,28.9,92,29.95,8.0,WNW,8.1,-,0.00,,Overcast,300,2013-03-26 04:53:00
1:09 AM,30.2,28.4,93,29.92,7.0,WNW,8.1,-,N/A,,Overcast,290,2013-03-26 05:09:00
1:53 AM,30.9,28.9,92,29.96,3.0,WNW,6.9,-,0.00,Snow,Light Snow,290,2013-03-26 05:53:00
2:15 AM,30.2,28.4,93,29.93,2.5,WNW,6.9,-,0.00,Snow,Light Snow,300,2013-03-26 06:15:00
2:53 AM,30.9,28.9,92,29.97,2.5,WNW,6.9,-,0.00,Snow,Light Snow,300,2013-03-26 06:53:00
3:24 AM,30.2,28.4,93,29.94,2.5,NW,6.9,-,0.00,Snow,Light Snow,310,2013-03-26 07:24:00
3:53 AM,30.0,28.9,96,29.98,3.0,WNW,6.9,-,0.00,Snow,Light Snow,300,2013-03-26 07:53:00
4:05 AM,30.2,28.4,93,29.95,3.0,WNW,5.8,-,0.00,Snow,Light Snow,300,2013-03-26 08:05:00
4:16 AM,30.2,28.4,93,29.95,2.5,WNW,6.9,-,0.00,Snow,Light Snow,300,2013-03-26 08:16:00
4:30 AM,30.2,28.4,93,29.95,3.0,NW,5.8,-,0.00,Snow,Light Snow,310,2013-03-26 08:30:00
4:38 AM,30.2,28.4,93,29.95,4.0,WNW,5.8,-,0.00,Snow,Light Snow,300,2013-03-26 08:38:00
4:53 AM,30.0,28.0,92,29.99,4.0,NW,6.9,-,0.00,Snow,Light Snow,310,2013-03-26 08:53:00
5:10 AM,30.2,28.4,93,29.96,6.0,NW,6.9,-,0.00,Snow,Light Snow,310,2013-03-26 09:10:00
5:53 AM,30.0,28.0,92,30.00,6.0,NW,6.9,-,0.00,Snow,Light Snow,320,2013-03-26 09:53:00
6:53 AM,30.0,28.0,92,30.01,5.0,NW,6.9,-,0.00,Snow,Light Snow,320,2013-03-26 10:53:00
7:16 AM,30.2,28.4,93,29.99,7.0,NW,8.1,-,0.00,Snow,Light Snow,310,2013-03-26 11:16:00
7:53 AM,30.0,28.0,92,30.04,2.5,NW,5.8,-,0.00,Snow,Light Snow,320,2013-03-26 11:53:00
8:53 AM,30.0,28.9,96,30.06,3.0,NW,5.8,-,0.00,Snow,Light Snow,320,2013-03-26 12:53:00
9:53 AM,30.9,28.0,89,30.09,10.0,NW,5.8,-,0.02,,Overcast,310,2013-03-26 13:53:00
10:42 AM,32.0,28.4,87,30.07,10.0,NW,9.2,-,N/A,,Overcast,320,2013-03-26 14:42:00
10:53 AM,32.0,28.0,85,30.10,10.0,NW,10.4,-,N/A,,Overcast,320,2013-03-26 14:53:00
11:53 AM,34.0,28.0,79,30.12,9.0,NNW,11.5,-,0.00,,Overcast,330,2013-03-26 15:53:00
12:12 PM,35.6,28.4,75,30.09,5.0,NNW,11.5,-,0.00,Snow,Light Snow,330,2013-03-26 16:12:00
12:24 PM,35.6,28.4,75,30.10,10.0,NNW,10.4,-,0.00,,Overcast,330,2013-03-26 16:24:00
12:53 PM,36.0,28.0,73,30.12,10.0,NW,8.1,-,0.00,,Overcast,310,2013-03-26 16:53:00
1:16 PM,35.6,28.4,75,30.10,10.0,WNW,9.2,-,N/A,,Overcast,300,2013-03-26 17:16:00
1:42 PM,35.6,28.4,75,30.10,10.0,NW,9.2,-,N/A,,Overcast,310,2013-03-26 17:42:00
2:53 PM,37.0,28.0,70,30.13,10.0,NW,12.7,18.4,N/A,,Overcast,320,2013-03-26 18:53:00
3:19 PM,37.4,26.6,65,30.10,10.0,NW,11.5,-,N/A,,Overcast,310,2013-03-26 19:19:00
3:53 PM,37.0,27.0,67,30.13,10.0,NW,10.4,-,N/A,,Overcast,320,2013-03-26 19:53:00
4:53 PM,37.9,24.1,57,30.14,10.0,NW,13.8,-,N/A,,Overcast,310,2013-03-26 20:53:00
5:53 PM,37.0,25.0,62,30.14,10.0,WNW,13.8,-,N/A,,Overcast,290,2013-03-26 21:53:00
6:53 PM,36.0,27.0,70,30.17,10.0,West,9.2,16.1,N/A,,Overcast,280,2013-03-26 22:53:00
7:53 PM,35.1,27.0,72,30.19,10.0,WNW,10.4,-,0.00,Snow,Light Snow,300,2013-03-26 23:53:00
8:53 PM,34.0,25.0,70,30.21,10.0,WNW,6.9,-,0.00,,Overcast,300,2013-03-27 00:53:00
9:53 PM,34.0,25.0,70,30.22,10.0,West,8.1,-,N/A,,Overcast,280,2013-03-27 01:53:00
10:53 PM,33.1,25.0,72,30.23,10.0,West,6.9,-,N/A,,Overcast,270,2013-03-27 02:53:00
11:53 PM,32.0,25.0,75,30.23,10.0,WSW,4.6,-,N/A,,Overcast,250,2013-03-27 03:53:00